Regional Weather Roundup
Issued by NWS Binghamton, NY

Home | Current Version | Previous Version | Text Only | Print | Product List | Glossary On
Versions: 1 2 3 4 5 6 7 8 9 10 11 12 13 14 15 16 17 18 19 20 21 22 23 24 25 26 27 28 29 30 31 32 33 34 35 36 37 38 39 40 41 42 43 44 45 46 47 48 49 50
000
ASUS41 KBGM 221410
RWRBGM
RWRBGM
BINGHAMTON REGIONAL WEATHER ROUNDUP
NATIONAL WEATHER SERVICE BINGHAMTON NY
1000 AM EDT FRI AUG 22 2014

Note: "fair" indicates few or no clouds below 12,000 feet with no
significant weather and/or obstructions to visibility.

* = Station(s) that does not report precipitation, such as rain,
snow, etc, also no thunder or fog.

!NYZ009-015>018-022>025-036-037-044>046-055>057-062-221500
...CENTRAL NEW YORK...

CITY           SKY/WX    TMP DP  RH WIND       PRES   REMARKS
BINGHAMTON     FOG       64  63  94 SW3       30.06R VSB 1
CORTLAND       CLOUDY    66  66 100 CALM      30.05S
DANSVILLE      MOSUNNY   73  66  78 SE5       30.01S
ELMIRA         PTSUNNY   67  65  93 W8        30.02S FOG
ITHACA         PTSUNNY   71  66  84 CALM      30.04R
HAMILTON       CLOUDY    70  64  83 SE3       30.04S
MONTICELLO     CLOUDY    63  63 100 S5        30.09R
NORWICH        CLOUDY    68  64  88 CALM      30.05R
ONEONTA        PTSUNNY   66  63  88 SW6       30.06R
PENN YAN       PTSUNNY   71  65  81 S5        30.02S
ROME           CLOUDY    70  65  84 SE7       30.03R
SIDNEY         CLOUDY    70  70 100 CALM      30.05R
SYRACUSE       CLOUDY    70  67  90 E5        30.00S
$$

!PAZ038>040-043-044-047-048-072-221500
...NORTHEAST PENNSYLVANIA...

CITY           SKY/WX    TMP DP  RH WIND       PRES   REMARKS
HAZLETON       CLOUDY    64  63  94 SE5       30.10R FOG
SCRANTON       CLOUDY    69  64  84 E3        30.05R
TOWANDA*       CLOUDY    70  70 100 CALM      30.04S
$$
&&
KEY
WCI = WIND CHILL INDEX
VSB = VISIBILITY
HX  = HEAT INDEX
$$


USA.gov is the U.S. government's official web portal to all federal, state and local government web resources and services.